Location: Newark
(48.5667°N, 7.8167°E)
Time: 02:41:18
(UTC+00:00)

CZ-6 R/B - Pass Details

Date: 02 December 2021
Orbit: 385 x 499 km, 97.7° (Epoch: 27 January)

Event Time Altitude Azimuth Distance (km) Brightness Sun altitude
Exits shadow 16:55:19 - 6° (N) 2,221 ? -12.7°
Reaches altitude 10° 16:57:05 10° 359° (N) 1,478 ? -13.0°
Maximum altitude 17:00:01 38° 289° (WNW) 632 ? -13.5°
Drops below altitude 10° 17:02:52 10° 220° (SW) 1,428 ? -13.9°
Sets 17:04:52 0° 212° (SSW) 2,269 ? -14.2°
